Station BGNN4 - 8519483 - BERGEN POINT WEST REACH- NY

Sailing guide
Sailing guide
english français italiano spagnolo
english français italiano español
Sea - Seek
Station BGNN4 - 8519483 - BERGEN POINT WEST REACH- NY
Station BGNN4 - 8519483 - BERGEN POINT WEST REACH- NY

Weather report - Station BGNN4 - 8519483 - BERGEN POINT WEST REACH- NY

Time Wind speed knots Wind direction Pressure ----
December 18, 2014 6:48 pm EST 1015 Air Temperature:4.1
December 18, 2014 5:48 pm EST 1015 Air Temperature:4.4
December 18, 2014 4:48 pm EST 1015 Air Temperature:4.5
December 18, 2014 3:48 pm EST 1015 Air Temperature:5.1
December 18, 2014 2:48 pm EST 1014 Air Temperature:5
December 18, 2014 12:48 pm EST 1016 Air Temperature:4.8
December 18, 2014 9:48 am EST 1016 Air Temperature:4.2
December 18, 2014 8:48 am EST 1014 Air Temperature:3.8
December 18, 2014 7:48 am EST 1015 Air Temperature:3.7
December 18, 2014 6:48 am EST 1014 Air Temperature:3.4
December 18, 2014 3:48 am EST 1012 Air Temperature:4
December 18, 2014 2:48 am EST 1013 Air Temperature:3.9
December 17, 2014 11:48 pm EST 1012 Air Temperature:4.7
December 17, 2014 10:48 pm EST 1013 Air Temperature:5.2
December 17, 2014 9:48 pm EST 1013 Air Temperature:6
December 17, 2014 8:48 pm EST 1013 Air Temperature:6.6
December 17, 2014 7:48 pm EST 1017 Air Temperature:7.4
December 17, 2014 6:48 pm EST 1012 Air Temperature:8.5
December 17, 2014 5:48 pm EST 1011 Air Temperature:8.9
December 17, 2014 4:48 pm EST 1011 Air Temperature:9.5
December 17, 2014 3:48 pm EST 1010 Air Temperature:10.1